This is the latest recevied weather packets stored in our database for station/object K8FJG-13. If no packets are shown the sender has not sent any weather packets the latest 1 day(s).
| Time | Temp. | Humidity | Pressure | Rain* | Wind** | Luminosity | Snow |
|---|---|---|---|---|---|---|---|
| 1778032279 | 8.89° C | 97% | 964.2 hPa | - | - | - | - |
| 1778031676 | 8.89° C | 97% | 964.1 hPa | - | - | - | - |
| 1778031073 | 8.89° C | 97% | 964.1 hPa | - | - | - | - |
| 1778030470 | 8.89° C | 97% | 963.9 hPa | - | - | - | - |
| 1778028660 | 8.89° C | 97% | 963.7 hPa | - | - | - | - |
| 1778028057 | 8.89° C | 96% | 963.8 hPa | - | - | - | - |
| 1778027454 | 8.89° C | 96% | 963.7 hPa | - | - | - | - |
| 1778026851 | 8.89° C | 96% | 963.6 hPa | - | - | - | - |
| 1778026248 | 8.33° C | 96% | 963.5 hPa | - | - | - | - |
| 1778020216 | 8.89° C | 96% | 964 hPa | - | - | - | - |
| 1778019613 | 8.89° C | 96% | 964 hPa | - | - | - | - |
| 1778015994 | 11.11° C | 95% | 963.6 hPa | - | - | - | - |
| 1778013581 | 12.22° C | 94% | 963.7 hPa | - | - | - | - |
| 1778012375 | 12.22° C | 94% | 963.3 hPa | - | - | - | - |
| 1778011169 | 12.78° C | 92% | 963.6 hPa | - | - | - | - |
| 1778010566 | 12.78° C | 91% | 963.7 hPa | - | - | - | - |
| 1778009963 | 13.33° C | 91% | 963.6 hPa | - | - | - | - |
| 1778006947 | 15° C | 81% | 963.8 hPa | - | - | - | - |
| 1778005741 | 15.56° C | 76% | 963.9 hPa | - | - | - | - |
| 1778003931 | 15.56° C | 75% | 963.8 hPa | - | - | - | - |
| 1778003328 | 15.56° C | 75% | 963.7 hPa | - | - | - | - |
| 1778002725 | 15.56° C | 75% | 963.8 hPa | - | - | - | - |
| 1778002122 | 16.11° C | 74% | 963.6 hPa | - | - | - | - |
* Rain since midnight (hover to see other rain measurements)
** Current wind speed in m/s (hover to see current wind gust speed)